Stations météo

réclame
Mon MeteoGroup
Ouessant, France (7100): Température de l'air & dewpoint: 05.12.2018 00:00:00 - 11.12.2018 00:00:00 (CET)Ouessant, France (7100): Vitesse du vent & gusts: 05.12.2018 00:00:00 - 11.12.2018 00:00:00 (CET)Ouessant, France (7100): Direction du vent: 05.12.2018 00:00:00 - 11.12.2018 00:00:00 (CET)Ouessant, France (7100): reduced air pressure: 05.12.2018 00:00:00 - 11.12.2018 00:00:00 (CET)Ouessant, France (7100): visibility: 05.12.2018 00:00:00 - 11.12.2018 00:00:00 (CET)Ouessant, France (7100): Quantités de précipitations: 05.12.2018 00:00:00 - 11.12.2018 00:00:00 (CET)
Date & Time tt [°C] td [°C] ff [km/h] ff [knt] fx [km/h] fx [knt] dd ppp [hPa] vv [km] rr [mm]
11.12.2018 00:00:00 10,7 7,4 14 7 18 10 S 1027,8 - 0,0
10.12.2018 23:00:00 9,1 6,5 12 7 18 10 SSW 1028,4 - 0,0
10.12.2018 22:00:00 10,5 7,4 13 7 17 9 SW 1028,3 18 0,0
10.12.2018 21:00:00 10,6 8,2 10 5 16 9 SSW 1028,7 - 0,0
10.12.2018 20:00:00 10,8 8,6 14 7 18 10 S 1029,1 - 0,0
10.12.2018 19:00:00 10,8 8,4 10 6 16 8 S 1029,3 18 0,0
10.12.2018 18:00:00 10,6 8,4 10 5 12 7 S 1030,0 - 0,0
10.12.2018 17:00:00 11,2 8,2 6 3 15 8 SW 1030,2 - 0,0
10.12.2018 16:00:00 11,6 8,3 11 6 16 9 SW 1030,3 15 0,0
10.12.2018 15:00:00 11,9 7,8 11 6 16 9 W 1030,7 - 0,0
10.12.2018 14:00:00 12,0 7,9 11 6 18 10 W 1030,8 - 0,0
10.12.2018 13:00:00 11,6 7,7 12 6 25 14 W 1031,3 12 0,0
10.12.2018 12:00:00 11,2 7,5 15 8 25 13 WNW 1031,9 - 0,0
10.12.2018 11:00:00 10,8 7,3 17 9 23 12 W 1031,7 - 0,0
10.12.2018 10:00:00 10,0 6,5 19 10 26 14 WNW 1031,7 16 0,0
10.12.2018 09:00:00 9,2 6,1 15 8 23 12 WNW 1031,5 - 0,0
10.12.2018 08:00:00 9,6 6,5 18 10 29 16 NW 1031,6 - 0,0
10.12.2018 07:00:00 9,7 6,2 21 11 34 18 NW 1031,5 18 0,0
10.12.2018 06:00:00 9,8 6,1 26 14 37 20 NW 1031,1 - 0,0
10.12.2018 05:00:00 10,1 6,4 23 12 32 18 NW 1031,2 - 0,0
10.12.2018 04:00:00 9,8 6,0 23 12 36 19 NW 1031,2 12 0,0
10.12.2018 03:00:00 10,2 7,1 26 14 41 22 NW 1031,0 - 0,0
10.12.2018 02:00:00 10,0 6,2 28 15 47 26 NW 1030,9 - 0,0
10.12.2018 01:00:00 10,3 6,4 33 18 46 25 NW 1030,9 - 0,0
10.12.2018 00:00:00 10,6 6,5 31 17 53 29 NW 1030,5 - 0,0
09.12.2018 23:00:00 10,4 6,3 36 20 57 31 NW 1030,4 - 0,0
09.12.2018 22:00:00 10,6 6,0 42 23 61 33 NW 1029,7 20 0,0
09.12.2018 21:00:00 10,6 6,2 39 21 64 35 NW 1029,2 - 0,0
09.12.2018 20:00:00 10,8 6,2 45 24 63 34 NNW 1028,0 - 0,0
09.12.2018 19:00:00 10,8 6,7 40 22 68 37 NW 1027,8 18 0,0
09.12.2018 18:00:00 11,0 6,5 43 23 67 36 NW 1027,0 - 0,0
09.12.2018 17:00:00 10,9 6,6 44 24 73 39 NW 1025,9 - 0,0
09.12.2018 16:00:00 11,4 7,3 46 25 78 42 NW 1025,3 6 0,0
09.12.2018 15:00:00 11,7 7,6 51 28 91 49 NW 1024,1 6 0,0
09.12.2018 14:00:00 11,9 7,0 55 30 84 45 NW 1023,4 - 0,0
09.12.2018 13:00:00 12,1 7,8 55 30 89 48 NW 1022,9 - 0,0
09.12.2018 12:00:00 11,9 7,0 67 36 97 52 NW 1022,0 - 0,0
09.12.2018 11:00:00 11,7 7,8 65 35 96 52 WNW 1020,8 - 0,0
09.12.2018 10:00:00 11,4 7,7 66 35 93 50 NW 1019,7 6 0,0
09.12.2018 09:00:00 11,5 8,4 64 34 99 53 WNW 1018,7 - 0,0
09.12.2018 08:00:00 11,4 8,3 58 32 104 56 WNW 1017,5 - 0,0
09.12.2018 07:00:00 11,5 7,8 65 35 102 55 WNW 1017,1 4,0 0,0
09.12.2018 06:00:00 11,2 6,7 68 37 95 51 WNW 1016,4 - 0,0
09.12.2018 05:00:00 11,0 6,3 71 39 100 54 W 1016,1 - 0,0
09.12.2018 04:00:00 10,9 6,2 65 35 104 56 WNW 1016,2 8 0,0
09.12.2018 03:00:00 11,2 5,9 74 40 101 54 WNW 1015,2 - 0,0
09.12.2018 02:00:00 10,8 8,0 64 34 94 51 W 1015,1 - 0,0
09.12.2018 01:00:00 11,2 6,9 63 34 94 51 WNW 1014,7 8 0,0
09.12.2018 00:00:00 11,7 8,2 60 33 87 47 W 1014,2 - 0,0
08.12.2018 23:00:00 11,5 7,8 56 31 96 52 W 1013,8 - 0,0
08.12.2018 22:00:00 11,3 9,0 61 33 98 53 WNW 1013,4 - 0,6
08.12.2018 21:00:00 12,1 9,3 56 30 80 43 W 1013,3 - 0,0
08.12.2018 20:00:00 12,0 9,4 55 30 93 50 W 1013,0 - 0,0
08.12.2018 19:00:00 12,1 9,8 55 30 91 49 W 1013,0 10 0,0
08.12.2018 18:00:00 12,3 10,7 56 31 85 46 W 1012,9 - 0,0
08.12.2018 17:00:00 12,6 11,3 54 29 80 43 W 1012,6 - 0,0
08.12.2018 16:00:00 12,6 11,5 56 30 79 42 W 1012,5 6 0,0
08.12.2018 15:00:00 12,9 12,6 54 29 84 46 W 1012,6 - 0,2
08.12.2018 14:00:00 12,7 12,5 53 29 88 48 WSW 1013,0 - 0,0
08.12.2018 13:00:00 12,2 12,0 49 26 77 42 WSW 1014,3 - 0,0
08.12.2018 12:00:00 11,7 11,2 45 25 74 40 SW 1015,7 - 0,0
08.12.2018 11:00:00 11,6 10,7 46 25 78 42 WSW 1016,2 - 0,2
08.12.2018 10:00:00 11,5 10,9 38 20 64 35 WSW 1016,9 3,0 0,2
08.12.2018 09:00:00 11,1 10,0 42 23 69 37 W 1017,4 - 0,0
08.12.2018 08:00:00 11,0 9,4 41 22 68 37 W 1017,8 - 0,0
08.12.2018 07:00:00 11,3 8,7 42 23 70 38 W 1018,1 15 0,0
08.12.2018 06:00:00 11,2 7,5 46 25 74 40 W 1017,7 - 0,0
08.12.2018 05:00:00 11,0 7,9 49 27 74 40 W 1018,0 - 0,0
08.12.2018 04:00:00 10,7 7,8 45 24 76 41 W 1018,3 - 0,0
08.12.2018 03:00:00 11,0 7,9 58 31 86 47 W 1018,0 - 0,0
08.12.2018 02:00:00 10,5 7,0 50 27 85 46 W 1017,6 - 0,0
08.12.2018 01:00:00 10,5 7,2 59 32 87 47 W 1017,8 - 0,2
08.12.2018 00:00:00 10,3 6,8 51 27 77 42 W 1017,7 - 0,0
07.12.2018 23:00:00 9,9 7,7 60 33 85 46 W 1017,8 - 0,0
07.12.2018 22:00:00 10,0 6,7 50 27 80 43 W 1017,8 20 0,0
07.12.2018 21:00:00 10,4 6,7 59 32 81 44 W 1017,4 - 0,0
07.12.2018 20:00:00 10,3 5,9 57 31 80 43 W 1016,4 - 0,0
07.12.2018 19:00:00 9,9 5,9 55 30 91 49 W 1016,4 18 0,0
07.12.2018 18:00:00 9,6 6,3 59 32 90 49 W 1015,4 - 0,0
07.12.2018 17:00:00 7,8 5,1 61 33 107 58 WNW 1014,7 - 1,0
07.12.2018 16:00:00 9,6 5,8 50 27 87 47 WNW 1014,2 8 0,0
07.12.2018 15:00:00 10,2 4,3 64 35 95 51 WNW 1012,8 - 0,0
07.12.2018 14:00:00 10,7 5,7 60 33 88 47 WNW 1012,0 - 0,0
07.12.2018 13:00:00 10,5 7,2 51 28 92 50 W 1012,2 - 0,0
07.12.2018 12:00:00 10,2 6,0 61 33 92 50 WNW 1011,6 - 0,4
07.12.2018 11:00:00 10,6 7,1 50 27 87 47 WNW 1010,8 - 0,0
07.12.2018 10:00:00 10,9 7,8 52 28 85 46 WNW 1010,0 12 0,0
07.12.2018 09:00:00 9,6 8,5 44 24 90 49 WNW 1009,0 - 2,0
07.12.2018 08:00:00 10,8 10,5 56 30 94 51 WNW 1008,1 - 2,1
07.12.2018 07:00:00 12,7 12,5 52 28 75 40 SW 1008,0 4,0 3,2
07.12.2018 06:00:00 12,4 12,1 49 26 76 41 SSW 1010,0 - 0,8
07.12.2018 05:00:00 12,5 11,6 45 25 70 38 SW 1011,3 - 0,0
07.12.2018 04:00:00 12,4 11,6 48 26 71 38 SW 1013,0 6 0,0
07.12.2018 03:00:00 12,3 12,1 45 24 67 36 SW 1014,4 - 0,0
07.12.2018 02:00:00 12,4 12,2 41 22 63 34 SW 1015,7 - 0,0
07.12.2018 01:00:00 12,5 12,3 42 23 73 40 SW 1016,4 6 -
07.12.2018 00:00:00 12,6 12,4 39 21 59 32 SW 1017,1 - -
06.12.2018 23:00:00 12,5 12,3 34 18 57 31 SW 1018,0 - 0,0
06.12.2018 22:00:00 12,4 12,2 40 21 54 29 SW 1018,4 10 0,0
06.12.2018 21:00:00 12,5 12,3 35 19 51 27 SW 1019,1 - 0,0
06.12.2018 20:00:00 12,5 12,3 32 17 48 26 SW 1019,9 - 0,0
06.12.2018 19:00:00 12,5 12,3 31 17 60 32 SW 1019,9 0,5 0,0
06.12.2018 18:00:00 12,4 12,2 35 19 54 29 WSW 1019,8 - 0,0
06.12.2018 17:00:00 12,7 12,2 36 20 59 32 SW 1019,6 - 0,0
06.12.2018 16:00:00 12,7 12,2 33 18 52 28 SW 1019,9 6 0,0
06.12.2018 15:00:00 13,0 11,9 33 18 47 25 SW 1020,3 - 0,0
06.12.2018 14:00:00 13,1 11,7 32 18 49 26 WSW 1020,7 - 0,0
06.12.2018 13:00:00 13,2 11,1 32 17 44 24 WSW 1020,9 - 0,0
06.12.2018 12:00:00 12,9 10,8 31 17 45 25 WSW 1021,2 - 0,0
06.12.2018 11:00:00 12,6 11,0 30 16 41 22 WSW 1021,2 - 0,0
06.12.2018 10:00:00 12,1 11,2 27 15 37 20 WSW 1020,9 12 0,0
06.12.2018 09:00:00 11,7 11,1 25 13 36 19 WSW 1020,3 - 0,0
06.12.2018 08:00:00 11,5 11,0 23 12 52 28 W 1019,7 - 0,0
06.12.2018 07:00:00 11,8 11,6 34 18 58 31 W 1019,0 6 0,0
06.12.2018 06:00:00 12,1 11,9 29 16 56 30 W 1018,9 - 0,0
06.12.2018 05:00:00 11,9 11,7 34 19 54 29 W 1018,1 - 0,0
06.12.2018 04:00:00 12,0 12,0 37 20 55 30 W 1018,1 6 0,0
06.12.2018 03:00:00 12,1 12,1 31 17 50 27 W 1017,4 - 0,0
06.12.2018 02:00:00 12,0 12,0 36 19 54 29 W 1016,9 - 0,0
06.12.2018 01:00:00 12,2 12,0 29 15 45 24 W 1016,2 6 0,0
06.12.2018 00:00:00 12,4 12,2 30 16 44 24 W 1015,2 - 0,0
05.12.2018 23:00:00 12,5 12,3 26 14 42 23 W 1015,0 - 0,0
05.12.2018 22:00:00 12,7 12,5 27 14 44 24 W 1014,3 18 0,0
05.12.2018 21:00:00 12,8 12,6 29 15 47 25 W 1013,8 - 0,0
05.12.2018 20:00:00 12,9 12,7 33 18 47 26 WSW 1013,0 - 0,0
05.12.2018 19:00:00 12,8 12,6 32 17 56 30 WSW 1012,4 3,0 0,0
05.12.2018 18:00:00 13,0 12,7 36 19 54 29 SW 1011,7 - 0,0
05.12.2018 17:00:00 13,0 12,8 37 20 55 30 SW 1011,4 - 0,8
05.12.2018 16:00:00 13,1 12,9 36 19 55 30 SW 1011,6 - 0,0
05.12.2018 15:00:00 13,5 13,3 34 18 48 26 WSW 1011,8 - 0,0
05.12.2018 14:00:00 13,4 13,4 38 20 58 31 SW 1012,1 - 0,0
05.12.2018 13:00:00 12,9 12,7 45 24 67 36 SSW 1012,5 2,0 2,1
05.12.2018 12:00:00 12,8 12,6 47 26 71 38 SSW 1013,4 - 4,8
05.12.2018 11:00:00 12,9 12,7 44 24 59 32 S 1013,8 - 0,2
05.12.2018 10:00:00 12,9 12,6 42 23 59 32 S 1014,0 - 0,0
05.12.2018 09:00:00 12,8 12,5 43 23 57 31 SSW 1014,9 - 0,0
05.12.2018 08:00:00 12,7 12,4 39 21 54 29 SSW 1015,3 - 0,0
05.12.2018 07:00:00 12,6 12,4 39 21 62 34 S 1014,9 15 0,0
05.12.2018 06:00:00 12,6 12,6 35 19 51 28 S 1015,3 - 0,0
05.12.2018 05:00:00 12,6 12,6 37 20 49 26 S 1016,1 - 0,0
05.12.2018 04:00:00 12,7 12,7 36 19 53 28 S 1016,8 6 0,0
05.12.2018 03:00:00 12,8 12,8 38 21 53 29 S 1017,0 - 0,0
05.12.2018 02:00:00 12,9 12,9 35 19 50 27 S 1017,3 - 0,0
05.12.2018 01:00:00 12,5 12,5 30 16 44 24 S 1017,8 10 0,0
05.12.2018 00:00:00 12,7 12,7 32 17 45 24 SSW 1018,0 - 0,0

tt = Température de l'air
td = dewpoint
ff = Vitesse du vent
fx = gusts
dd = Direction du vent
ppp = reduced air pressure
vv = visibility
rr = Quantités de précipitations

stations d'obs. à proximité